SCP
-0 0 0 0 0 0 -0 -0 -0 -0 -0 -0 0 -0 -0 -0 0 -0 -0 0 0 -0 0 0 -0 -0 -0 -0 -0 -0 -0 -0 -0 -0 -0 -0 -0 -0 -0 -0 -0 -0 -0 -0 0 0 0 0 0
0 0 0 0 0 0 -0 -0 -0 0 -0 0 0 0 0 -0 -0 -0 0 -0 0 -0 -0 -0 -0 -0 -0 -0 -0 -0 -0 -0 -0 -0 -0 -0 -0 -0 -0 -0 -0 -0 -0 -0 -0 -0 -0 0 0
-0 0 0 0 -0 0 -0 -0 -0 -0 -0 -0 -0 -0 0 0 -0 -0 -0 0 0 -0 -0 -0 -0 -0 -0 -0 -0 0 -0 -0 -0 -0 -0 -0 -0 -0 -0 -0 -0 -0 -0 -0 -0 -0 -0 0 0
0 0 0 0 0 0 -0 -0 -0 -0 -0 -0 -0 -0 -0 -0 -0 0 0 0 -0 -0 -0 -0 -0 -0 -0 -0 -0 -0 -0 -0 -0 -0 -0 -0 -0 -0 -0 -0 -0 -0 -0 -0 -0 -0 -0 -0 0
-0 0 0 0 0 0 -0 -0 -0 -0 -0 -0 -0 -0 -0 -0 -0 -0 -0 -0 -0 -0 -0 -0 -0 -0 -0 -0 -0 -0 -0 -0 -0 -0 -0 0 -0 -0 -0 -0 -0 -0 -0 -0 -0 -0 0 0 0
0 -0 -0 0 0 0 -0 -0 -0 -0 -0 0 0 -0 -0 -0 -0 -0 -0 -0 -0 -0 -0 -0 -0 -0 -0 0 -0 -0 -0 -0 -0 0 -0 -0 -0 -0 -0 -0 -0 -0 -0 -0 0 0 0 0 0
0 -0 0 -0 0 0 -0 0 0 -0 -0 0 0 0 -0 -0 -0 -0 -0 -0 -0 -0 -0 -0 0 0 0 0 0 0 -0 -0 -0 0 -0 -0 -0 -0 -0 -0 0 0 0 0 0 0 0 0 0
0 0 -0 0 0 0 0 0 0 0 0 0 0 0 0 0 0 0 -0 -0 -0 -0 -0 -0 -0 -0 0 0 -0 0 0 -0 0 0 0 -0 -0 -0 -0 0 0 0 0 0 0 0 0 0 0
0 0 0 0 0 0 0 0 0 0 0 0 0 0 0 0 0 0 0 0 0 0 0 0 0 0 0 0 0 0 0 0 0 0 0 0 0 0 0 0 0 0 0 0 0 0 0 0 0
0 0 0 0 0 0 0 0 0 0 0 0 0 0 0 0 0 0 0 0 0 0 0 0 0 0 0 0 0 0 0 0 0 0 0 0 0 0 0 0 0 0 0 0 0 0 0 0 0
0 0 0 0 0 0 0 0 0 0 0 0 0 0 0 0 0 0 0 0 0 0 0 0 0 0 0 0 0 0 0 0 0 0 0 0 0 0 0 0 0 0 0 0 0 0 0 0 0
0 0 0 0 0 0 0 0 0 0 0 0 0 0 0 0 0 0 0 0 0 0 0 0 0 0 0 0 0 0 0 0 0 0 0 0 0 0 0 0 0 0 0 0 0 0 0 0 0
0 0 0 0 0 0 0 0 0 0 0 0 0 0 0 0 0 0 0 0 0 0 0 0 0 0 0 0 0 0 0 0 0 0 0 0 0 0 0 0 0 0 0 0 0 0 0 0 0
0 0 0 0 0 0 0 0 0 0 0 0 0 0 0 0 0 0 0 0 0 0 0 0 0 0 0 0 0 0 0 0 0 0 0 0 0 0 0 0 0 0 0 0 0 0 0 0 0
0 0 0 0 0 0 0 0 0 0 0 0 0 0 0 0 0 0 0 0 0 0 0 0 0 0 0 0 0 0 0 0 0 0 0 0 0 0 0 0 0 0 0 0 0 0 0 0 0
0 0 0 0 0 0 0 0 0 0 0 0 0 0 0 0 0 0 0 0 0 0 0 0 0 0 0 0 0 0 0 0 0 0 0 0 0 0 0 0 0 0 0 0 0 0 0 0 0
0 0 0 0 0 0 0 0 0 0 0 0 0 0 0 0 0 0 0 0 0 0 0 0 0 0 0 0 0 0 0 0 0 0 0 0 0 0 0 0 0 0 0 0 0 0 0 0 0
0 0 0 0 0 0 0 0 0 0 0 0 0 0 0 0 0 0 0 0 0 0 0 0 0 0 0 0 0 0 0 0 0 0 0 0 0 0 0 0 0 0 0 0 0 0 0 0 0
0 0 0 0 0 0 0 0 0 0 0 0 0 0 0 0 0 0 0 0 0 0 0 0 0 0 0 0 0 0 0 0 0 0 0 0 0 0 0 0 0 0 0 0 0 0 0 0 0
0 0 0 0 0 0 0 0 0 0 0 0 0 0 0 0 0 0 0 0 0 0 0 0 0 0 0 0 0 0 0 0 0 0 0 0 0 0 0 0 0 0 0 0 0 0 0 0 0
0 0 0 0 0 0 0 0 0 0 0 0 0 0 0 0 0 0 0 0 0 0 0 0 0 0 0 0 0 0 0 0 0 0 0 0 0 0 0 0 0 0 0 0 0 0 0 0 0
0 0 0 0 0 0 0 0 0 0 0 0 0 0 0 0 0 0 0 0 0 0 0 0 0 0 0 0 0 0 0 0 0 0 0 0 0 0 0 0 0 0 0 0 0 0 0 0 0
0 0 0 0 0 0 0 0 0 0 0 0 0 0 0 0 0 0 0 0 0 0 0 0 0 0 0 0 0 0 0 0 0 0 0 0 0 0 0 0 0 0 0 0 0 0 0 0 0
0 0 0 0 0 0 0 0 0 0 0 0 0 0 0 0 0 0 0 0 0 0 0 0 0 0 0 0 0 0 0 0 0 0 0 0 0 0 0 0 0 0 0 0 0 0 0 0 0
0 0 0 0 0 0 0 0 0 0 0 0 0 0 0 0 0 0 0 0 0 0 0 0 0 0 0 0 0 0 0 0 0 0 0 0 0 0 0 0 0 0 0 0 0 0 0 0 0
0 0 0 0 0 0 0 0 0 0 0 0 0 0 0 0 0 0 0 0 0 0 0 0 0 0 0 0 0 0 0 0 0 0 0 0 0 0 0 0 0 0 0 0 0 0 0 0 0
0 0 0 0 0 0 0 0 0 0 0 0 0 0 0 0 0 0 0 0 0 0 0 0 0 0 0 0 0 0 0 0 0 0 0 0 0 0 0 0 0 0 0 0 0 0 0 0 0
0 0 0 0 0 0 0 0 0 0 0 0 0 0 0 0 0 0 0 0 0 0 0 0 0 0 0 0 0 0 0 0 0 0 0 0 0 0 0 0 0 0 0 0 0 0 0 0 0
0 0 0 0 0 0 0 0 0 0 0 0 0 0 0 0 0 0 0 0 0 0 0 0 0 0 0 0 0 0 0 0 0 0 0 0 0 0 0 0 0 0 0 0 0 0 0 0 0
0 0 0 0 0 0 0 0 0 0 0 0 0 0 0 0 0 0 0 0 0 0 0 0 0 0 0 0 0 0 0 0 0 0 0 0 0 0 0 0 0 0 0 0 0 0 0 0 0
Wind_Speed_500mb
2 4 2 9 4 6 11 6 11 11 15 24 14 29 25 45 13 12 13 2 19 17 17 22 21 20 20 19 18 16 14 15 15 16 17 16 16 13 19 25 27 26 21 20 18 18 18 17 17
4 8 8 10 4 10 8 13 18 17 23 15 10 20 40 20 36 26 9 7 23 20 12 20 21 15 15 19 17 15 13 12 12 13 13 14 13 11 16 19 24 27 25 19 16 15 14 13 12
7 8 7 5 3 9 11 14 18 19 11 4 9 22 18 12 21 11 12 16 20 25 9 17 20 17 14 15 15 12 9 10 11 11 12 12 11 8 13 16 20 23 23 23 17 14 13 11 10
7 4 10 2 16 13 17 17 30 22 16 6 18 20 20 14 9 12 15 22 10 24 20 19 18 20 15 11 12 9 6 6 6 9 10 10 7 6 11 15 19 23 25 25 20 16 14 13 12
14 8 6 1 14 7 16 23 7 12 12 15 1 17 18 16 17 20 14 24 12 26 21 21 24 20 17 13 9 7 5 4 2 3 6 7 5 6 10 15 21 24 24 24 24 22 19 17 14
8 6 6 8 13 8 13 14 9 14 26 8 22 22 9 15 15 17 17 22 14 19 23 16 26 24 23 21 14 8 8 6 4 1 4 4 3 3 13 16 17 20 21 20 22 23 22 21 19
6 4 12 11 16 10 12 12 6 13 15 13 6 10 20 10 14 12 11 12 11 19 21 15 22 27 25 23 20 16 13 10 7 3 2 4 5 7 10 13 17 23 23 20 21 21 22 22 19
8 4 8 7 12 9 17 13 10 10 11 10 3 6 14 12 9 10 8 7 9 13 15 19 23 26 35 27 23 21 20 16 12 8 7 7 7 8 7 10 18 25 23 27 30 23 22 20 19
3 5 6 5 2 11 26 11 5 6 16 10 4 5 13 12 9 9 5 5 9 11 14 17 18 20 23 30 26 31 27 23 18 13 11 10 11 8 5 6 18 24 20 20 22 27 29 21 22
4 4 13 16 18 9 22 17 23 9 19 9 8 7 7 8 16 16 23 19 14 15 19 22 23 24 24 27 31 20 16 20 17 16 13 10 7 6 3 18 20 24 21 21 20 20 25 30 29
2 4 10 13 16 17 17 4 8 9 10 15 27 14 12 11 15 16 14 15 14 14 17 18 22 26 27 26 26 25 24 19 16 16 11 11 8 10 15 22 20 23 23 22 22 24 27 28 32
7 4 10 8 2 5 10 6 6 14 10 16 26 19 16 13 11 10 9 9 11 14 17 19 15 14 21 25 24 24 26 32 23 19 18 16 11 5 10 12 12 11 16 21 24 25 27 30 32
8 8 1 3 4 3 3 6 11 11 19 16 18 18 17 14 8 6 7 10 13 16 21 17 16 17 17 27 28 26 29 29 25 21 23 18 14 10 10 9 14 19 19 20 26 27 25 25 27
10 6 9 11 12 8 5 11 11 12 27 19 17 17 19 15 10 9 9 10 11 17 16 16 16 17 21 27 28 29 30 30 27 24 18 16 18 19 20 22 24 24 20 16 23 23 20 24 26
3 8 14 23 19 5 10 14 18 26 27 23 23 22 19 15 12 12 11 10 10 11 12 13 14 19 24 30 31 32 28 28 21 18 16 17 13 14 12 12 15 17 21 19 12 17 17 24 25
7 7 6 6 32 10 11 13 8 39 31 29 27 22 19 17 15 15 13 12 12 9 9 10 12 20 25 29 30 30 27 27 26 23 20 20 15 9 7 4 9 7 4 11 15 16 20 25 25
11 9 15 7 26 12 16 10 13 23 31 33 32 27 23 22 20 17 16 15 14 11 10 11 16 22 30 33 32 33 32 26 23 23 24 16 12 12 6 7 7 7 9 10 11 12 17 18 19
12 10 13 11 15 12 14 22 12 31 36 38 36 34 30 25 23 21 17 17 16 14 16 22 27 31 32 31 30 30 29 25 27 29 23 17 14 11 8 8 7 3 3 5 7 10 16 19 22
18 13 17 7 7 11 18 20 20 46 43 41 47 45 39 34 35 24 20 22 22 22 25 30 32 33 33 35 35 33 31 29 27 23 20 19 17 15 12 9 8 6 5 10 12 14 18 22 25
18 18 19 16 15 6 14 22 18 33 46 64 61 54 48 44 36 28 27 30 31 32 35 38 41 44 43 35 33 36 33 31 28 28 27 24 20 18 14 11 11 11 13 13 14 16 20 24 30
15 15 13 15 9 8 12 17 26 23 51 56 57 55 52 57 41 34 37 40 38 39 42 46 47 43 40 37 34 34 35 36 35 33 30 26 20 16 13 11 11 12 13 16 19 21 24 28 29
16 14 21 13 7 8 13 11 13 17 27 35 57 57 60 54 42 42 43 46 48 49 48 45 43 40 38 38 41 41 38 36 32 28 23 18 15 12 11 12 12 14 17 18 22 25 27 27 30
7 10 1 6 11 9 10 15 12 25 33 31 46 57 52 55 54 52 52 52 55 52 51 51 51 51 52 51 44 37 33 29 27 23 19 15 13 10 10 11 14 16 19 23 26 28 32 34 33
18 9 5 3 1 12 26 26 12 25 31 18 37 58 61 61 58 55 55 56 58 60 59 59 58 56 51 45 39 33 29 28 26 22 16 12 10 7 7 11 14 18 21 23 28 31 32 34 34
11 12 3 5 2 14 2 20 32 9 7 12 39 60 69 68 68 65 67 66 66 66 65 63 59 56 50 43 37 33 31 27 23 19 14 9 7 6 5 9 11 14 20 23 25 27 30 31 31
18 17 11 14 9 8 6 14 12 1 13 5 49 65 70 73 73 75 72 73 72 71 69 67 63 57 52 44 40 35 31 28 24 18 14 9 6 2 2 6 10 13 16 20 22 24 25 26 27
11 17 20 9 2 3 11 14 16 10 6 3 40 59 65 73 74 75 74 76 77 76 74 70 66 59 51 45 40 36 32 29 25 20 16 13 8 4 4 6 9 12 15 18 22 25 27 27 27
8 9 8 4 5 12 10 19 20 12 22 16 27 53 63 70 74 77 80 82 80 76 73 70 65 58 52 47 43 38 35 31 28 24 20 17 13 9 9 10 10 12 15 20 23 25 26 27 27
8 8 10 9 9 8 9 15 7 28 30 36 34 57 67 75 82 84 86 87 84 80 79 76 71 66 58 51 47 42 37 35 32 27 24 20 17 15 14 13 11 13 16 20 24 27 29 30 31
9 15 18 9 12 13 4 40 8 12 20 38 48 60 70 80 85 85 87 89 87 87 84 80 77 71 61 55 50 45 42 38 35 31 29 25 25 21 20 15 11 13 18 22 27 29 31 34 36
Wind_Direction_500mb
277 77 51 342 326 126 114 60 118 118 86 68 63 84 78 52 34 101 136 116 133 184 179 171 162 153 149 149 143 130 110 93 83 73 66 66 69 59 33 29 31 42 46 55 60 60 58 58 60
106 101 7 286 258 118 81 123 80 73 93 112 80 122 85 65 75 98 81 31 135 167 185 178 161 160 161 160 157 145 128 113 96 85 78 69 72 53 33 36 36 33 37 42 52 53 53 53 54
93 72 307 263 332 52 119 102 102 102 110 96 110 39 49 13 51 66 86 64 118 162 191 177 162 165 167 159 160 154 134 123 105 87 76 72 79 43 28 32 30 31 36 35 45 42 40 41 43
61 316 267 304 82 5 111 101 114 116 109 61 90 88 81 39 80 91 106 89 133 142 169 200 186 169 175 181 168 172 159 139 92 69 68 76 84 49 34 28 27 25 30 35 39 37 34 32 30
2 288 265 336 60 71 50 92 135 90 102 125 354 83 88 74 112 116 97 115 137 150 190 201 194 177 192 193 206 208 202 185 140 77 69 67 79 73 33 29 27 25 26 27 29 27 25 25 27
289 264 290 168 120 96 106 123 151 114 111 113 111 107 104 157 144 129 130 128 152 164 178 192 193 195 195 197 209 230 246 228 216 8 55 66 70 33 3 7 15 14 11 14 19 24 25 24 26
285 327 285 334 124 139 128 139 187 143 135 58 22 86 140 167 157 152 153 148 166 163 178 177 191 206 209 212 209 212 226 243 244 271 349 353 315 328 347 2 6 2 354 2 12 11 14 22 27
314 313 314 291 136 172 118 162 81 24 67 112 39 84 150 188 153 160 167 180 174 182 200 202 202 207 208 212 226 229 234 234 241 258 283 291 296 290 305 339 9 9 9 12 7 13 15 15 17
330 307 253 241 254 122 138 147 146 131 120 109 65 118 145 174 172 161 153 216 216 217 217 222 226 226 216 199 213 225 229 238 245 257 270 285 299 300 248 343 3 8 6 1 7 8 3 7 16
287 300 1 4 40 89 155 205 153 175 137 128 113 110 113 138 149 165 165 214 225 223 228 231 231 230 230 224 218 202 221 243 252 255 259 249 225 244 255 338 339 344 340 344 358 357 356 2 358
0 311 358 40 45 19 124 227 121 220 203 70 172 168 141 135 143 163 192 222 245 257 257 244 238 234 229 225 223 205 189 209 222 227 206 193 226 278 307 320 325 317 321 328 339 351 353 352 350
296 74 3 64 66 32 130 123 176 236 135 156 146 172 155 172 182 193 215 237 238 243 254 256 254 233 218 221 206 200 189 203 207 192 190 199 201 230 274 299 305 309 320 320 331 332 339 340 350
229 126 114 137 189 219 310 246 237 162 200 196 176 170 179 190 199 215 227 242 247 246 246 245 237 229 190 189 190 185 185 200 191 199 214 225 239 247 279 292 301 303 294 299 306 314 320 326 333
13 354 248 189 208 221 227 256 230 212 201 193 172 185 197 199 197 224 238 259 260 261 262 248 220 213 200 196 191 186 186 192 208 213 220 227 243 252 260 267 279 285 289 288 304 307 308 323 323
323 293 224 223 211 259 200 275 231 190 189 188 180 197 199 199 211 237 254 262 256 256 246 232 207 201 186 184 182 184 182 189 183 193 198 205 213 232 236 262 288 294 296 305 305 311 318 312 310
237 196 240 309 171 175 171 267 255 177 179 181 188 199 204 210 226 240 247 250 246 251 231 211 193 182 178 172 175 178 183 183 181 186 184 181 173 187 207 234 247 263 280 308 308 313 307 309 314
193 256 218 161 174 129 189 276 156 176 182 185 187 199 207 219 225 231 230 231 231 220 193 169 148 146 155 165 172 175 175 171 174 169 169 170 170 170 181 199 220 234 268 291 300 299 298 304 313
217 213 242 245 201 185 192 256 183 190 198 198 195 201 212 223 226 228 216 208 206 190 160 148 145 147 155 162 168 174 172 178 176 167 166 162 165 165 165 170 168 194 279 323 333 323 326 337 332
290 303 297 287 143 190 223 244 230 194 205 216 202 201 207 208 224 222 209 191 184 165 153 148 145 147 152 162 169 170 166 170 172 168 158 149 143 136 135 124 109 94 56 39 32 8 1 355 1
239 262 265 286 128 191 267 265 263 184 206 208 210 200 198 200 215 207 194 184 181 172 155 150 152 155 162 164 166 171 176 169 163 148 141 134 129 125 119 101 82 64 46 41 30 18 9 5 3
244 238 250 244 153 224 293 272 254 251 221 209 215 209 200 206 208 198 189 186 181 174 168 166 170 169 169 173 177 173 163 154 147 141 137 129 122 112 99 82 62 47 32 22 20 17 12 17 15
247 221 230 258 310 240 148 280 260 269 241 197 204 200 192 193 204 199 189 186 184 180 178 176 173 173 170 164 162 162 156 153 147 143 135 126 111 93 76 62 50 35 27 19 16 16 14 12 16
217 30 107 235 249 300 266 272 252 223 252 217 194 190 190 193 199 196 192 189 188 184 180 174 170 165 160 160 161 160 161 162 158 153 146 132 111 87 63 48 36 29 26 26 23 18 14 14 12
129 90 90 33 205 254 228 226 225 238 229 218 185 188 190 186 192 195 189 188 181 179 175 170 167 165 166 166 165 168 173 172 169 162 154 143 128 106 62 36 22 19 18 13 9 5 1 2 2
170 135 252 293 232 242 284 225 245 251 315 202 182 182 185 187 188 191 190 184 179 176 174 172 172 172 171 171 172 174 178 177 173 169 159 153 132 95 37 12 3 1 359 354 350 347 345 343 344
188 182 162 234 213 265 332 237 243 306 62 190 183 177 180 184 189 195 191 185 181 179 178 179 179 180 179 180 182 182 182 186 187 183 179 176 170 146 359 356 349 347 339 338 339 339 337 333 336
181 213 227 352 58 334 218 261 283 166 158 132 155 167 177 182 188 196 192 188 186 185 185 185 185 186 186 187 188 188 191 196 197 192 191 195 200 220 266 297 304 316 329 332 336 337 333 329 332
197 161 102 195 237 246 247 248 242 225 220 190 186 180 179 181 188 198 195 193 192 191 190 190 192 193 193 192 194 197 199 198 201 201 204 207 215 229 250 268 286 310 328 336 335 332 328 325 324
134 214 220 168 188 225 279 257 302 201 197 194 194 187 184 184 192 199 198 198 197 196 197 197 197 199 197 196 198 201 203 206 205 208 212 217 222 231 248 257 282 307 327 333 333 331 328 323 321
223 184 192 170 225 235 217 258 12 7 186 179 187 187 188 195 197 200 200 201 201 203 203 203 204 204 203 203 203 202 205 208 211 215 219 223 230 236 242 253 274 309 323 330 332 330 327 323 321
Wind_Speed_850mb
2 4 2 9 4 6 11 6 11 11 15 24 14 29 25 45 13 12 13 2 19 17 17 22 21 20 20 19 18 16 14 15 15 16 17 16 16 13 19 25 27 26 21 20 18 18 18 17 17
4 8 8 10 4 10 8 13 18 17 23 15 10 20 40 20 36 26 9 7 23 20 12 20 21 15 15 19 17 15 13 12 12 13 13 14 13 11 16 19 24 27 25 19 16 15 14 13 12
7 8 7 5 3 9 11 14 18 19 11 4 9 22 18 12 21 11 12 16 20 25 9 17 20 17 14 15 15 12 9 10 11 11 12 12 11 8 13 16 20 23 23 23 17 14 13 11 10
7 4 10 2 16 13 17 17 30 22 16 6 18 20 20 14 9 12 15 22 10 24 20 19 18 20 15 11 12 9 6 6 6 9 10 10 7 6 11 15 19 23 25 25 20 16 14 13 12
14 8 6 1 14 7 16 23 7 12 12 15 1 17 18 16 17 20 14 24 12 26 21 21 24 20 17 13 9 7 5 4 2 3 6 7 5 6 10 15 21 24 24 24 24 22 19 17 14
8 6 6 8 13 8 13 14 9 14 26 8 22 22 9 15 15 17 17 22 14 19 23 16 26 24 23 21 14 8 8 6 4 1 4 4 3 3 13 16 17 20 21 20 22 23 22 21 19
6 4 12 11 16 10 12 12 6 13 15 13 6 10 20 10 14 12 11 12 11 19 21 15 22 27 25 23 20 16 13 10 7 3 2 4 5 7 10 13 17 23 23 20 21 21 22 22 19
8 4 8 7 12 9 17 13 10 10 11 10 3 6 14 12 9 10 8 7 9 13 15 19 23 26 35 27 23 21 20 16 12 8 7 7 7 8 7 10 18 25 23 27 30 23 22 20 19
3 5 6 5 2 11 26 11 5 6 16 10 4 5 13 12 9 9 5 5 9 11 14 17 18 20 23 30 26 31 27 23 18 13 11 10 11 8 5 6 18 24 20 20 22 27 29 21 22
4 4 13 16 18 9 22 17 23 9 19 9 8 7 7 8 16 16 23 19 14 15 19 22 23 24 24 27 31 20 16 20 17 16 13 10 7 6 3 18 20 24 21 21 20 20 25 30 29
2 4 10 13 16 17 17 4 8 9 10 15 27 14 12 11 15 16 14 15 14 14 17 18 22 26 27 26 26 25 24 19 16 16 11 11 8 10 15 22 20 23 23 22 22 24 27 28 32
7 4 10 8 2 5 10 6 6 14 10 16 26 19 16 13 11 10 9 9 11 14 17 19 15 14 21 25 24 24 26 32 23 19 18 16 11 5 10 12 12 11 16 21 24 25 27 30 32
8 8 1 3 4 3 3 6 11 11 19 16 18 18 17 14 8 6 7 10 13 16 21 17 16 17 17 27 28 26 29 29 25 21 23 18 14 10 10 9 14 19 19 20 26 27 25 25 27
10 6 9 11 12 8 5 11 11 12 27 19 17 17 19 15 10 9 9 10 11 17 16 16 16 17 21 27 28 29 30 30 27 24 18 16 18 19 20 22 24 24 20 16 23 23 20 24 26
3 8 14 23 19 5 10 14 18 26 27 23 23 22 19 15 12 12 11 10 10 11 12 13 14 19 24 30 31 32 28 28 21 18 16 17 13 14 12 12 15 17 21 19 12 17 17 24 25
7 7 6 6 32 10 11 13 8 39 31 29 27 22 19 17 15 15 13 12 12 9 9 10 12 20 25 29 30 30 27 27 26 23 20 20 15 9 7 4 9 7 4 11 15 16 20 25 25
11 9 15 7 26 12 16 10 13 23 31 33 32 27 23 22 20 17 16 15 14 11 10 11 16 22 30 33 32 33 32 26 23 23 24 16 12 12 6 7 7 7 9 10 11 12 17 18 19
12 10 13 11 15 12 14 22 12 31 36 38 36 34 30 25 23 21 17 17 16 14 16 22 27 31 32 31 30 30 29 25 27 29 23 17 14 11 8 8 7 3 3 5 7 10 16 19 22
18 13 17 7 7 11 18 20 20 46 43 41 47 45 39 34 35 24 20 22 22 22 25 30 32 33 33 35 35 33 31 29 27 23 20 19 17 15 12 9 8 6 5 10 12 14 18 22 25
18 18 19 16 15 6 14 22 18 33 46 64 61 54 48 44 36 28 27 30 31 32 35 38 41 44 43 35 33 36 33 31 28 28 27 24 20 18 14 11 11 11 13 13 14 16 20 24 30
15 15 13 15 9 8 12 17 26 23 51 56 57 55 52 57 41 34 37 40 38 39 42 46 47 43 40 37 34 34 35 36 35 33 30 26 20 16 13 11 11 12 13 16 19 21 24 28 29
16 14 21 13 7 8 13 11 13 17 27 35 57 57 60 54 42 42 43 46 48 49 48 45 43 40 38 38 41 41 38 36 32 28 23 18 15 12 11 12 12 14 17 18 22 25 27 27 30
7 10 1 6 11 9 10 15 12 25 33 31 46 57 52 55 54 52 52 52 55 52 51 51 51 51 52 51 44 37 33 29 27 23 19 15 13 10 10 11 14 16 19 23 26 28 32 34 33
18 9 5 3 1 12 26 26 12 25 31 18 37 58 61 61 58 55 55 56 58 60 59 59 58 56 51 45 39 33 29 28 26 22 16 12 10 7 7 11 14 18 21 23 28 31 32 34 34
11 12 3 5 2 14 2 20 32 9 7 12 39 60 69 68 68 65 67 66 66 66 65 63 59 56 50 43 37 33 31 27 23 19 14 9 7 6 5 9 11 14 20 23 25 27 30 31 31
18 17 11 14 9 8 6 14 12 1 13 5 49 65 70 73 73 75 72 73 72 71 69 67 63 57 52 44 40 35 31 28 24 18 14 9 6 2 2 6 10 13 16 20 22 24 25 26 27
11 17 20 9 2 3 11 14 16 10 6 3 40 59 65 73 74 75 74 76 77 76 74 70 66 59 51 45 40 36 32 29 25 20 16 13 8 4 4 6 9 12 15 18 22 25 27 27 27
8 9 8 4 5 12 10 19 20 12 22 16 27 53 63 70 74 77 80 82 80 76 73 70 65 58 52 47 43 38 35 31 28 24 20 17 13 9 9 10 10 12 15 20 23 25 26 27 27
8 8 10 9 9 8 9 15 7 28 30 36 34 57 67 75 82 84 86 87 84 80 79 76 71 66 58 51 47 42 37 35 32 27 24 20 17 15 14 13 11 13 16 20 24 27 29 30 31
9 15 18 9 12 13 4 40 8 12 20 38 48 60 70 80 85 85 87 89 87 87 84 80 77 71 61 55 50 45 42 38 35 31 29 25 25 21 20 15 11 13 18 22 27 29 31 34 36
Wind_Direction_850mb
277 77 51 342 326 126 114 60 118 118 86 68 63 84 78 52 34 101 136 116 133 184 179 171 162 153 149 149 143 130 110 93 83 73 66 66 69 59 33 29 31 42 46 55 60 60 58 58 60
106 101 7 286 258 118 81 123 80 73 93 112 80 122 85 65 75 98 81 31 135 167 185 178 161 160 161 160 157 145 128 113 96 85 78 69 72 53 33 36 36 33 37 42 52 53 53 53 54
93 72 307 263 332 52 119 102 102 102 110 96 110 39 49 13 51 66 86 64 118 162 191 177 162 165 167 159 160 154 134 123 105 87 76 72 79 43 28 32 30 31 36 35 45 42 40 41 43
61 316 267 304 82 5 111 101 114 116 109 61 90 88 81 39 80 91 106 89 133 142 169 200 186 169 175 181 168 172 159 139 92 69 68 76 84 49 34 28 27 25 30 35 39 37 34 32 30
2 288 265 336 60 71 50 92 135 90 102 125 354 83 88 74 112 116 97 115 137 150 190 201 194 177 192 193 206 208 202 185 140 77 69 67 79 73 33 29 27 25 26 27 29 27 25 25 27
289 264 290 168 120 96 106 123 151 114 111 113 111 107 104 157 144 129 130 128 152 164 178 192 193 195 195 197 209 230 246 228 216 8 55 66 70 33 3 7 15 14 11 14 19 24 25 24 26
285 327 285 334 124 139 128 139 187 143 135 58 22 86 140 167 157 152 153 148 166 163 178 177 191 206 209 212 209 212 226 243 244 271 349 353 315 328 347 2 6 2 354 2 12 11 14 22 27
314 313 314 291 136 172 118 162 81 24 67 112 39 84 150 188 153 160 167 180 174 182 200 202 202 207 208 212 226 229 234 234 241 258 283 291 296 290 305 339 9 9 9 12 7 13 15 15 17
330 307 253 241 254 122 138 147 146 131 120 109 65 118 145 174 172 161 153 216 216 217 217 222 226 226 216 199 213 225 229 238 245 257 270 285 299 300 248 343 3 8 6 1 7 8 3 7 16
287 300 1 4 40 89 155 205 153 175 137 128 113 110 113 138 149 165 165 214 225 223 228 231 231 230 230 224 218 202 221 243 252 255 259 249 225 244 255 338 339 344 340 344 358 357 356 2 358
0 311 358 40 45 19 124 227 121 220 203 70 172 168 141 135 143 163 192 222 245 257 257 244 238 234 229 225 223 205 189 209 222 227 206 193 226 278 307 320 325 317 321 328 339 351 353 352 350
296 74 3 64 66 32 130 123 176 236 135 156 146 172 155 172 182 193 215 237 238 243 254 256 254 233 218 221 206 200 189 203 207 192 190 199 201 230 274 299 305 309 320 320 331 332 339 340 350
229 126 114 137 189 219 310 246 237 162 200 196 176 170 179 190 199 215 227 242 247 246 246 245 237 229 190 189 190 185 185 200 191 199 214 225 239 247 279 292 301 303 294 299 306 314 320 326 333
13 354 248 189 208 221 227 256 230 212 201 193 172 185 197 199 197 224 238 259 260 261 262 248 220 213 200 196 191 186 186 192 208 213 220 227 243 252 260 267 279 285 289 288 304 307 308 323 323
323 293 224 223 211 259 200 275 231 190 189 188 180 197 199 199 211 237 254 262 256 256 246 232 207 201 186 184 182 184 182 189 183 193 198 205 213 232 236 262 288 294 296 305 305 311 318 312 310
237 196 240 309 171 175 171 267 255 177 179 181 188 199 204 210 226 240 247 250 246 251 231 211 193 182 178 172 175 178 183 183 181 186 184 181 173 187 207 234 247 263 280 308 308 313 307 309 314
193 256 218 161 174 129 189 276 156 176 182 185 187 199 207 219 225 231 230 231 231 220 193 169 148 146 155 165 172 175 175 171 174 169 169 170 170 170 181 199 220 234 268 291 300 299 298 304 313
217 213 242 245 201 185 192 256 183 190 198 198 195 201 212 223 226 228 216 208 206 190 160 148 145 147 155 162 168 174 172 178 176 167 166 162 165 165 165 170 168 194 279 323 333 323 326 337 332
290 303 297 287 143 190 223 244 230 194 205 216 202 201 207 208 224 222 209 191 184 165 153 148 145 147 152 162 169 170 166 170 172 168 158 149 143 136 135 124 109 94 56 39 32 8 1 355 1
239 262 265 286 128 191 267 265 263 184 206 208 210 200 198 200 215 207 194 184 181 172 155 150 152 155 162 164 166 171 176 169 163 148 141 134 129 125 119 101 82 64 46 41 30 18 9 5 3
244 238 250 244 153 224 293 272 254 251 221 209 215 209 200 206 208 198 189 186 181 174 168 166 170 169 169 173 177 173 163 154 147 141 137 129 122 112 99 82 62 47 32 22 20 17 12 17 15
247 221 230 258 310 240 148 280 260 269 241 197 204 200 192 193 204 199 189 186 184 180 178 176 173 173 170 164 162 162 156 153 147 143 135 126 111 93 76 62 50 35 27 19 16 16 14 12 16
217 30 107 235 249 300 266 272 252 223 252 217 194 190 190 193 199 196 192 189 188 184 180 174 170 165 160 160 161 160 161 162 158 153 146 132 111 87 63 48 36 29 26 26 23 18 14 14 12
129 90 90 33 205 254 228 226 225 238 229 218 185 188 190 186 192 195 189 188 181 179 175 170 167 165 166 166 165 168 173 172 169 162 154 143 128 106 62 36 22 19 18 13 9 5 1 2 2
170 135 252 293 232 242 284 225 245 251 315 202 182 182 185 187 188 191 190 184 179 176 174 172 172 172 171 171 172 174 178 177 173 169 159 153 132 95 37 12 3 1 359 354 350 347 345 343 344
188 182 162 234 213 265 332 237 243 306 62 190 183 177 180 184 189 195 191 185 181 179 178 179 179 180 179 180 182 182 182 186 187 183 179 176 170 146 359 356 349 347 339 338 339 339 337 333 336
181 213 227 352 58 334 218 261 283 166 158 132 155 167 177 182 188 196 192 188 186 185 185 185 185 186 186 187 188 188 191 196 197 192 191 195 200 220 266 297 304 316 329 332 336 337 333 329 332
197 161 102 195 237 246 247 248 242 225 220 190 186 180 179 181 188 198 195 193 192 191 190 190 192 193 193 192 194 197 199 198 201 201 204 207 215 229 250 268 286 310 328 336 335 332 328 325 324
134 214 220 168 188 225 279 257 302 201 197 194 194 187 184 184 192 199 198 198 197 196 197 197 197 199 197 196 198 201 203 206 205 208 212 217 222 231 248 257 282 307 327 333 333 331 328 323 321
223 184 192 170 225 235 217 258 12 7 186 179 187 187 188 195 197 200 200 201 201 203 203 203 204 204 203 203 203 202 205 208 211 215 219 223 230 236 242 253 274 309 323 330 332 330 327 323 321